When you browse on this site, cookies collect data to enhance your experience and personalize the content and advertising you see.
Visit our Privacy Policy to learn more. By continuing to use the site, you agree to this use of cookies and data.

Météo par heure à Ladlou

Ce jour, 8 Juillet, Mercredi

Heure Température Précipitation Vent Pression Humidité
00:00 +19°C° 0 mm 1 m/s 721 mmHg 98%
01:00 +18°C° 0 mm 2 m/s 721 mmHg 98%
02:00 +19°C° 0 mm 1 m/s 721 mmHg 98%
03:00 +19°C° 0 mm 1 m/s 721 mmHg 98%
04:00 +19°C° 0 mm 1 m/s 720 mmHg 99%
05:00 +20°C° 0 mm 1 m/s 720 mmHg 97%
06:00 +21°C° 0 mm 1 m/s 720 mmHg 95%
07:00 +22°C° 0 mm 1 m/s 721 mmHg 93%
08:00 +23°C° 0 mm 2 m/s 721 mmHg 86%
09:00 +25°C° 0 mm 2 m/s 721 mmHg 80%
10:00 +26°C° 0 mm 2 m/s 721 mmHg 73%
11:00 +27°C° 0.7 mm 3 m/s 720 mmHg 75%
12:00 +27°C° 0.7 mm 3 m/s 720 mmHg 76%
13:00 +28°C° 0.7 mm 3 m/s 720 mmHg 78%
14:00 +28°C° 0.7 mm 3 m/s 719 mmHg 78%
15:00 +28°C° 0.7 mm 3 m/s 719 mmHg 79%
16:00 +27°C° 0.7 mm 3 m/s 719 mmHg 80%
17:00 +26°C° 0.5 mm 3 m/s 719 mmHg 83%
18:00 +25°C° 0.5 mm 2 m/s 719 mmHg 87%
19:00 +23°C° 0.5 mm 2 m/s 719 mmHg 90%
20:00 +22°C° 0 mm 1 m/s 719 mmHg 92%
21:00 +22°C° 0 mm 1 m/s 719 mmHg 94%
22:00 +21°C° 0 mm 1 m/s 719 mmHg 96%
23:00 +20°C° 0 mm 1 m/s 719 mmHg 96%

Demain, 9 Juillet, Jeudi

Heure Température Précipitation Vent Pression Humidité
00:00 +20°C° 0 mm 1 m/s 719 mmHg 96%
01:00 +20°C° 0 mm 1 m/s 719 mmHg 96%
02:00 +18°C° 0 mm 0 m/s 719 mmHg 96%
03:00 +17°C° 0 mm 0 m/s 719 mmHg 97%
04:00 +17°C° 0 mm 0 m/s 719 mmHg 97%
05:00 +19°C° 0 mm 0 m/s 720 mmHg 95%
06:00 +20°C° 0 mm 0 m/s 720 mmHg 92%
07:00 +22°C° 0 mm 0 m/s 721 mmHg 90%
08:00 +24°C° 0 mm 0 m/s 721 mmHg 78%
09:00 +27°C° 0 mm 0 m/s 721 mmHg 66%
10:00 +29°C° 0 mm 0 m/s 721 mmHg 54%
11:00 +30°C° 0 mm 0 m/s 721 mmHg 50%
12:00 +32°C° 0 mm 1 m/s 721 mmHg 47%
13:00 +33°C° 0 mm 1 m/s 721 mmHg 43%
14:00 +32°C° 0 mm 1 m/s 721 mmHg 45%
15:00 +32°C° 0 mm 1 m/s 720 mmHg 47%
16:00 +31°C° 0 mm 1 m/s 720 mmHg 49%
17:00 +29°C° 0 mm 1 m/s 720 mmHg 58%
18:00 +28°C° 0 mm 1 m/s 720 mmHg 67%
19:00 +26°C° 0 mm 1 m/s 720 mmHg 77%
20:00 +24°C° 0 mm 1 m/s 721 mmHg 82%
21:00 +23°C° 0 mm 1 m/s 721 mmHg 88%
22:00 +22°C° 0 mm 1 m/s 721 mmHg 93%
23:00 +21°C° 0.1 mm 1 m/s 721 mmHg 94%

Après-demain, 10 Juillet, Vendredi

Heure Température Précipitation Vent Pression Humidité
00:00 +21°C° 0.1 mm 1 m/s 721 mmHg 96%
01:00 +21°C° 0.1 mm 1 m/s 721 mmHg 97%
02:00 +20°C° 0 mm 1 m/s 721 mmHg 97%
03:00 +18°C° 0 mm 0 m/s 721 mmHg 98%
04:00 +18°C° 0 mm 0 m/s 721 mmHg 98%
05:00 +21°C° 0 mm 1 m/s 721 mmHg 96%
06:00 +22°C° 0 mm 1 m/s 721 mmHg 94%
07:00 +23°C° 0 mm 1 m/s 721 mmHg 92%
08:00 +24°C° 0 mm 2 m/s 721 mmHg 84%
09:00 +25°C° 0 mm 2 m/s 721 mmHg 76%
10:00 +26°C° 0 mm 3 m/s 721 mmHg 68%
11:00 +26°C° 0.3 mm 3 m/s 721 mmHg 73%
12:00 +26°C° 0.3 mm 3 m/s 721 mmHg 78%
13:00 +25°C° 0.3 mm 3 m/s 720 mmHg 84%
14:00 +25°C° 1.1 mm 3 m/s 720 mmHg 87%
15:00 +24°C° 1.1 mm 3 m/s 719 mmHg 90%
16:00 +22°C° 1.1 mm 3 m/s 719 mmHg 94%
17:00 +22°C° 0.8 mm 3 m/s 719 mmHg 95%
18:00 +21°C° 0.8 mm 3 m/s 718 mmHg 97%
19:00 +21°C° 0.8 mm 2 m/s 718 mmHg 99%
20:00 +20°C° 0.5 mm 3 m/s 717 mmHg 99%
21:00 +20°C° 0.5 mm 3 m/s 717 mmHg 99%
22:00 +20°C° 0.5 mm 3 m/s 716 mmHg 99%
23:00 +20°C° 0.5 mm 3 m/s 716 mmHg 99%

11 Juillet, Samedi

Heure Température Précipitation Vent Pression Humidité
00:00 +20°C° 0.5 mm 2 m/s 715 mmHg 99%
01:00 +20°C° 0.5 mm 2 m/s 715 mmHg 99%
02:00 +20°C° 2.3 mm 2 m/s 714 mmHg 99%
03:00 +21°C° 2.3 mm 1 m/s 714 mmHg 99%
04:00 +21°C° 2.3 mm 1 m/s 713 mmHg 99%
05:00 +19°C° 1.3 mm 0 m/s 713 mmHg 99%
06:00 +19°C° 1.3 mm 0 m/s 714 mmHg 99%
07:00 +19°C° 1.3 mm 0 m/s 714 mmHg 99%
08:00 +21°C° 0.2 mm 0 m/s 714 mmHg 96%
09:00 +24°C° 0.2 mm 1 m/s 714 mmHg 94%
10:00 +25°C° 0.2 mm 1 m/s 714 mmHg 91%
11:00 +27°C° 0.4 mm 1 m/s 714 mmHg 81%
12:00 +28°C° 0.4 mm 2 m/s 714 mmHg 70%
13:00 +30°C° 0.4 mm 2 m/s 714 mmHg 60%
14:00 +29°C° 0.2 mm 3 m/s 713 mmHg 66%
15:00 +28°C° 0.2 mm 3 m/s 713 mmHg 71%
16:00 +27°C° 0.2 mm 3 m/s 713 mmHg 77%
17:00 +26°C° 0.1 mm 3 m/s 713 mmHg 81%
18:00 +26°C° 0.1 mm 2 m/s 713 mmHg 84%
19:00 +25°C° 0.1 mm 2 m/s 713 mmHg 88%
20:00 +24°C° 0.2 mm 2 m/s 713 mmHg 91%
21:00 +23°C° 0.2 mm 2 m/s 713 mmHg 94%
22:00 +21°C° 0.2 mm 2 m/s 713 mmHg 96%
23:00 +20°C° 0 mm 2 m/s 713 mmHg 97%

12 Juillet, Dimanche

Heure Température Précipitation Vent Pression Humidité
00:00 +19°C° 0 mm 2 m/s 713 mmHg 97%
01:00 +19°C° 0 mm 2 m/s 713 mmHg 97%
02:00 +18°C° 0 mm 2 m/s 713 mmHg 97%
03:00 +17°C° 0 mm 2 m/s 713 mmHg 96%
04:00 +17°C° 0 mm 2 m/s 713 mmHg 96%
05:00 +18°C° 0 mm 2 m/s 713 mmHg 92%
06:00 +19°C° 0 mm 2 m/s 714 mmHg 89%
07:00 +20°C° 0 mm 3 m/s 714 mmHg 85%
08:00 +22°C° 0 mm 3 m/s 715 mmHg 74%
09:00 +25°C° 0 mm 3 m/s 715 mmHg 64%
10:00 +27°C° 0 mm 3 m/s 715 mmHg 53%
11:00 +27°C° 0 mm 3 m/s 715 mmHg 50%
12:00 +28°C° 0 mm 4 m/s 715 mmHg 47%
13:00 +29°C° 0 mm 4 m/s 715 mmHg 44%
14:00 +29°C° 0 mm 4 m/s 715 mmHg 45%
15:00 +29°C° 0 mm 3 m/s 715 mmHg 45%
16:00 +29°C° 0 mm 3 m/s 715 mmHg 45%
17:00 +27°C° 0 mm 3 m/s 715 mmHg 55%
18:00 +25°C° 0 mm 2 m/s 715 mmHg 65%
19:00 +23°C° 0 mm 1 m/s 715 mmHg 75%
20:00 +22°C° 0 mm 1 m/s 715 mmHg 77%
21:00 +21°C° 0 mm 1 m/s 715 mmHg 78%
22:00 +20°C° 0 mm 1 m/s 716 mmHg 80%
23:00 +19°C° 0 mm 1 m/s 716 mmHg 83%

13 Juillet, Lundi

Heure Température Précipitation Vent Pression Humidité
00:00 +19°C° 0 mm 1 m/s 715 mmHg 87%
01:00 +16°C° 0 mm 0 m/s 715 mmHg 90%
02:00 +16°C° 0 mm 0 m/s 715 mmHg 92%
03:00 +16°C° 0 mm 0 m/s 716 mmHg 93%
04:00 +15°C° 0 mm 0 m/s 716 mmHg 94%
05:00 +17°C° 0 mm 0 m/s 716 mmHg 87%
06:00 +19°C° 0 mm 0 m/s 716 mmHg 81%
07:00 +21°C° 0 mm 0 m/s 717 mmHg 75%
08:00 +24°C° 0 mm 0 m/s 717 mmHg 68%
09:00 +26°C° 0 mm 0 m/s 717 mmHg 61%
10:00 +30°C° 0 mm 1 m/s 717 mmHg 54%
11:00 +29°C° 0.7 mm 1 m/s 717 mmHg 59%
12:00 +29°C° 0.7 mm 1 m/s 716 mmHg 64%
13:00 +28°C° 0.7 mm 1 m/s 716 mmHg 70%
14:00 +28°C° 0.3 mm 1 m/s 716 mmHg 66%
15:00 +28°C° 0.3 mm 1 m/s 716 mmHg 62%
16:00 +29°C° 0.3 mm 1 m/s 716 mmHg 58%
17:00 +26°C° 2 mm 2 m/s 715 mmHg 71%
18:00 +23°C° 2 mm 2 m/s 715 mmHg 84%
19:00 +19°C° 2 mm 3 m/s 715 mmHg 97%
20:00 +19°C° 0.7 mm 2 m/s 715 mmHg 97%
21:00 +19°C° 0.7 mm 1 m/s 715 mmHg 97%
22:00 +17°C° 0.7 mm 0 m/s 715 mmHg 97%
23:00 +16°C° 0 mm 0 m/s 715 mmHg 97%
Voir plus